8 月 20 日 (星期一) | 會員登記|會員中心
買賣區主頁 > 手錶 > 所有手錶
所有物品 | 出售 | 徵求 排序 :  更新時間 | 刊登時間
 圖片 標題 價格 賣方/買方 瀏覽 更新時間
 Ticwatch E Smartwatch Wear OS (Apple Watch Samsung Gear) 【已完成】HK$800victor_kit28320/08 20:21
 Orient Star Automatic with 40hours power reserve indicatorHK$2,800Sky198916120/08 20:18
極罕有jeanrichard terrascope 39mm 98%新HK$6,000hin_3274220/08 20:09
SUUNTO ESSENTIALHK$2,200dee7181520/08 20:05
 PAUL PICOT Firshire Chronograph Lemania 1872 錶芯HK$5,500eunos25720/08 19:58
 Tudor Black Bay Chrono 鋼帶款 【已完成】HK$24,000lam2528178720/08 19:51
Rolex 116613LBHK$84,800時計工房52320/08 19:43
Seiko SBDX017 大MMHK$16,800時計工房3120/08 19:43
G Shock GPW-10001A 【已完成】HK$2,800Michael333836120/08 19:41
全新 100%new Apple watch series 3 Silver 42mmHK$2,200lhkplayer31720/08 19:39
超激罕已停產 Tudor Black Bay 79220N BB Blackbay 黑圈红点 金花笑臉 79220 NHK$30,000onyourown4620/08 19:33
已停產 Tudor Black Bay 79220B 藍 BB Blackbay 藍圈笑白臉 79220 BHK$20,000onyourown3920/08 19:32
G shock DW 5600E 黑色 防水 手錶 casioHK$290camberwell30520/08 19:31
 Garmin Fenix 5X 藍寶石表面 中文版 香港行貨 (1)HK$4,000josephlau61856720/08 19:29
帝舵男裝75404 机械表HK$12,800lok210420220/08 19:21
O.T.S 戶外運動石英跳字手表,95%新!HK$250li60888818720/08 19:21
rolex 214270HK$44,800wai7609246820/08 19:16
Omega Professional 3570.50 【已完成】HK$17,000frankiewong143743820/08 19:15
 99%新精工限量版landmaster25週年行貨全套(只買7日) 【已完成】HK$11,800makboy8866120/08 19:14
林寶堅尼 mini swiss手錶2隻$2000HK$2,000mr_dave29020/08 18:48
CITIZEN Automatic 錶 {1971年 星辰 )HK$300christmas337720/08 18:48
Disneyland star wars Apple watch 42mm 錶帶 【已完成】HK$150wingyu8828720/08 18:47
Garmin Fenix3 HR (英文版)HK$1,800cryho38220/08 18:46
G-SHOCK GA-110BHK$400corgi1234920/08 18:32
Apple Watch 42mm Nike 版 series 2HK$1,450rayyiu73520/08 18:31
已停產 Tudor Black Bay 79220R 红 BB Blackbay 红圈金花笑臉 79220 RHK$22,000onyourown7820/08 18:26
Panerai 44mm 斜紋錶帶 【等待確認】HK$700ag61815220/08 18:25
ROLEX 116520 #2014HK$136,800jack7778885420/08 18:24
Swiss vintage skin diverHK$3,000Loreric6820/08 18:13
CASIO GWF-1000-1JFHK$3,000xuanhk17420/08 18:12